Regional Weather Roundup
Issued by NWS

Home | Current Version | Previous Version | Graphics & Text | Print | Product List | Glossary On
Versions: 1 2 3 4 5 6 7 8 9 10 11 12 13 14 15 16 17 18 19 20 21 22 23 24 25 26 27 28 29 30 31 32 33 34 35 36 37 38 39 40 41 42 43 44 45 46 47 48 49 50
000
ASUS43 KMKX 170911
RWRWI

WISCONSIN REGIONAL WEATHER ROUNDUP
NATIONAL WEATHER SERVICE MILWAUKEE/SULLIVAN WI
300 AM CST FRI NOV 17 2017

NOTE: "FAIR" INDICATES FEW OR NO CLOUDS BELOW 12,000 FEET WITH NO
SIGNIFICANT WEATHER AND/OR OBSTRUCTIONS TO VISIBILITY.

WIZ001-002-006>008-014>016-023>028-171000-
NORTHWEST WISCONSIN

CITY           SKY/WX    TMP DP  RH WIND       PRES   REMARKS
SUPERIOR ARPT  CLOUDY    34  26  72 S6        29.89F WCI  29
ASHLAND        CLOUDY    33  24  69 S9        29.93F WCI  25
HAYWARD        CLOUDY    33  24  69 S15G28    29.90F WCI  23
SIREN          CLOUDY    34  26  74 S20       29.86F WCI  22
CUMBERLAND     CLOUDY    32  27  80 SE16G25   29.91F WCI  21
RICE LAKE      CLOUDY    32  27  81 SE16G24   29.94F WCI  22
CHETEK         CLOUDY    32  27  82 SE14G23   29.94F WCI  22
LADYSMITH      CLOUDY    32  27  80 S17       30.00F WCI  21
EAU CLAIRE     CLOUDY    33  27  78 SE12G20   29.98F WCI  24
MENOMONIE      CLOUDY    34  29  81 E15G22    29.95F WCI  24
NEW RICHMOND   CLOUDY    34  27  75 SE16G22   29.91F WCI  23
OSCEOLA        CLOUDY    35  28  76 SE20G25   29.90F WCI  24
$$

WIZ003>005-009-010-017-018-171000-
NORTH CENTRAL WISCONSIN

CITY           SKY/WX    TMP DP  RH WIND       PRES   REMARKS
MANITOWISH WTR CLOUDY    28  27  97 S15       30.00F WCI  16
ARBOR VITAE    CLOUDY    32  28  87 S14G23    30.01F WCI  22
WOODRUFF       CLOUDY    32  28  87 S14G23    30.01F WCI  22
RHINELANDER    CLOUDY    28  26  92 S14G21    30.05F WCI  17
EAGLE RIVER    CLOUDY    28  23  83 S8G16     30.04F WCI  19
LAND O LAKES   CLOUDY    28  25  88 S13       30.05F WCI  17
PHILLIPS       CLOUDY    29  26  88 SE12G22   29.99F WCI  20
TOMAHAWK       CLOUDY    29  25  86 S7        30.05S WCI  22
MEDFORD        CLOUDY    29  26  86 SE10G17   30.03S WCI  20
MERRILL        CLOUDY    30  27  86 S7G18     30.07F WCI  23
$$

WIZ029-030-035-036-043>047-171000-
CENTRAL WISCONSIN

CITY           SKY/WX    TMP DP  RH WIND       PRES   REMARKS
WAUSAU         CLOUDY    31  26  82 SE13      30.06F WCI  21
MOSINEE        NOT AVBL
MARSHFIELD     CLOUDY    31  25  78 SE14      30.05F WCI  21
STEVENS POINT  CLOUDY    30  27  87 SE12G18   30.08F WCI  20
WAUPACA        CLOUDY    35  29  79 SE8       30.14F WCI  28
WAUTOMA        CLOUDY    34  28  79 SE9       30.13S WCI  27
WISC RAPIDS    CLOUDY    32  27  81 S12       30.08F WCI  23
CAMP DOUGLAS   CLOUDY    33  27  78 S14       30.06F WCI  24
$$

WIZ011>013-019>022-031-037>040-048>050-171000-
NORTHEAST WISCONSIN

CITY           SKY/WX    TMP DP  RH WIND       PRES   REMARKS
ANTIGO         CLOUDY    28  26  91 SE10      30.09F WCI  19
SHAWANO        CLOUDY    33  27  80 E6        30.14F WCI  27
OCONTO         CLOUDY    31  26  81 NW3       30.16R
STURGEON BAY   CLOUDY    32  29  88 E7        30.15F WCI  26
GREEN BAY      CLOUDY    32  29  88 W6        30.17R WCI  26
MANITOWOC      CLOUDY    36  33  89 SE12      30.14F WCI  28
APPLETON       CLOUDY    32  27  80 E3        30.12S
CLINTONVILLE   CLOUDY    30  27  86 SE5       30.14F WCI  25
OSHKOSH        CLOUDY    34  29  82 SE6       30.13F WCI  29
$$

WIZ032>034-041-042-053>061-171000-
SOUTHWEST WISCONSIN

CITY           SKY/WX    TMP DP  RH WIND       PRES   REMARKS
LA CROSSE      CLOUDY    36  28  73 SE13      30.03F WCI  27
SPARTA         CLOUDY    33  28  82 SE9G16    30.06F WCI  26
VIROQUA        CLOUDY    32  30  94 SE15G22   30.02F WCI  22
BOSCOBEL       CLOUDY    35  28  75 SE5       30.09F WCI  31
PRAIRIE DU CHI CLOUDY    34  28  78 SE9       30.06F WCI  27
PLATTEVILLE    CLOUDY    33  31  96 SE10      30.09S WCI  24
$$

WIZ056-057-062-063-064-067-068-171000-
SOUTH CENTRAL WISCONSIN

CITY           SKY/WX    TMP DP  RH WIND       PRES   REMARKS
REEDSBURG      CLOUDY    33  28  82 S7        30.10R WCI  26
BARABOO/DELLS  CLOUDY    33  28  80 S12       30.10S WCI  24
LONE ROCK      CLOUDY    35  29  78 S12       30.12R WCI  27
MINERAL POINT  CLOUDY    34  32  93 SE16G23   30.07S WCI  23
MADISON        CLOUDY    34  28  79 S10       30.12F WCI  26
MIDDLETON      CLOUDY    35  30  81 S8        30.12R WCI  28
WATERTOWN      CLOUDY    33  31  92 SE3       30.12F
MONROE         CLOUDY    32  30  93 S15       30.09F WCI  22
JANESVILLE     CLOUDY    34  30  86 S10       30.12F WCI  26
$$

WIZ051-052-058>065-066-070>072-171000-
SOUTHEAST WISCONSIN

CITY           SKY/WX    TMP DP  RH WIND       PRES   REMARKS
MILWAUKEE      CLOUDY    36  30  79 S3        30.14F
WAUKESHA       CLOUDY    32  28  86 SW5       30.16R WCI  27
MILWAUKEE/TIMM CLOUDY    34  28  80 S5        30.15S WCI  30
RACINE         CLOUDY    36  31  82 SW3       30.16F
BURLINGTON     CLOUDY    36  34  92 S7        30.14F WCI  30
KENOSHA        CLOUDY    37  30  75 S6        30.15F WCI  32
FOND DU LAC    CLOUDY    34  28  79 SE8       30.13F WCI  27
SHEBOYGAN      CLOUDY    36  34  92 CALM      30.13F
WEST BEND      CLOUDY    34  32  93 SW3       30.14F
JUNEAU         CLOUDY    32  28  86 SE5       30.13F WCI  27
$$

LSZ147-162-171000-
LAKE SUPERIOR

STATION/POSITION TIME  TEMP    WIND        PRES    WAVE
                       AIR SEA DIR/SP/G            HT/PER
                 (UTC) (F)     (DEG/KT/KT) (MB)    (FT/S)
DEVILS ISLAND    0900   35     170/  6/ 10 1014.6F
SAXON HARBOR     0840   33     180/  9/ 19 1013.2F
$$

LMZ867-665-643>646-171000-
LAKE MICHIGAN

STATION/POSITION TIME  TEMP    WIND        PRES    WAVE
                       AIR SEA DIR/SP/G            HT/PER
                 (UTC) (F)     (DEG/KT/KT) (MB)    (FT/S)
N MID LAKE BUOY  0850   35 49  160/ 10/ 14 1024.0S   1/ 3
NORTHPORT PIER   0840   36     150/  8/ 14 1022.0F
KEWAUNEE LAKESHO 0848   36     130/ 13/ 17 1020.0F
SHEBOYGAN LAKESH 0900   39     130/ 16/ 18 1020.7F
PORT WASHINGTON  0840   38     200/  6/  8 1022.0F
MILWAUKEE LAKESH 0850   38     160/  6/  7   N/A
S MID LAKE BUOY  0850   42 50  140/ 10/ 14 1022.8F   2/ 6
KENOSHA   LAKESH 0900   37     200/  6/ 11 1021.0
$$

TC  - TEMPERATURE IN CELSIUS
VSB - VISIBILITY IN STATUTE MILES
WCI - WIND CHILL INDEX
HX  - HEAT INDEX





USA.gov is the U.S. government's official web portal to all federal, state and local government web resources and services.